[[{"header":{"parameterUnit":"m.s-1","parameterCategory":2,"la1":30.2991,"la2":30.254,"lo1":-89.0895,"lo2":-89.0444,"dy":0.0017,"dx":0.0017,"nx":28,"ny":28,"refTime":"2025-04-19T21:00:00:Z","depth":"0","parameterNumber":2,"parameterNumberName":"U-component_of_CURRENTS"},"data":[0,0,0,0,0,0,0,0,0,0,0,0,0,0,0,0,0,0,0,0,0,0,0,0,0,0,0,0,0,0,0,0,0,0,0,0,0,0,0,0,0,0,0,0,0,0,0,0,0,0,0,0,0,0,0,0,0,0,-0.2765,-0.2766,0,-0.2808,-0.2808,-0.2808,-0.2761,-0.2759,-0.2758,-0.2756,-0.2701,-0.2701,-0.2701,0,0,0,0,0,0,0,0,0,0,0,0,0,-0.2651,-0.2653,-0.2765,-0.2766,-0.2766,-0.2808,-0.2808,-0.2808,-0.2761,-0.2759,-0.2758,-0.2756,-0.2701,-0.2701,-0.2701,0,0,0,0,0,0,0,0,0,0,0,0,0,-0.2695,-0.2653,-0.2765,-0.275,-0.2749,-0.2807,-0.2808,-0.2808,-0.2762,-0.2759,-0.2757,-0.2755,-0.2701,-0.2701,-0.2701,-0.2748,0,0,-0.2701,-0.2701,0,0,0,0,0,0,0,0,-0.2693,-0.2699,-0.2751,-0.2751,-0.275,-0.2779,-0.2747,-0.2784,-0.2762,-0.2754,-0.2756,-0.2754,-0.2721,-0.2719,-0.273,-0.2745,-0.2743,-0.2701,-0.2701,-0.2701,-0.2701,0,0,0,0,0,0,0,-0.269,-0.2697,-0.2779,-0.2752,-0.2752,-0.2744,-0.2747,-0.2754,-0.2747,-0.2755,-0.2752,-0.2762,-0.2719,-0.2731,-0.2729,-0.2742,-0.2701,-0.2701,-0.2701,-0.2701,-0.2786,-0.2788,0,0,0,0,0,0,-0.2692,-0.2695,-0.2778,-0.2781,-0.2718,-0.2748,-0.2752,-0.277,-0.2749,-0.2745,-0.2764,-0.2759,-0.2732,-0.2729,-0.2726,-0.2742,-0.2701,-0.2701,-0.2701,-0.2784,-0.2786,-0.2789,0,0,0,0,0,0,-0.269,-0.27,-0.2776,-0.274,-0.2749,-0.2753,-0.2774,-0.2772,-0.2772,-0.2757,-0.275,-0.2763,-0.273,-0.2726,-0.2742,-0.274,-0.2701,-0.2701,-0.2781,-0.2784,-0.2788,-0.2797,0,0,0,0,0,0,-0.2686,-0.2699,-0.2708,-0.274,-0.2751,-0.281,-0.2776,-0.2775,-0.2783,-0.2778,-0.2755,-0.2748,-0.2728,-0.2742,-0.2742,-0.2739,-0.2701,-0.2778,-0.2782,-0.2786,-0.2794,-0.28,-0.2806,0,0,0,0,0,-0.2682,-0.2711,-0.2709,-0.2718,-0.2766,-0.2812,-0.2817,-0.2809,-0.2786,-0.2797,-0.2788,-0.2748,-0.2768,-0.2745,-0.2743,-0.2741,-0.2776,-0.2781,-0.2786,-0.2791,-0.2799,-0.2806,0,0,0,0,0,0,-0.2667,-0.2711,-0.2708,-0.2748,-0.2775,-0.2804,-0.2817,-0.2814,-0.2819,-0.2807,-0.278,-0.2775,-0.2787,-0.2782,-0.2756,-0.2785,-0.2765,-0.277,-0.277,-0.2777,-0.2783,-0.2763,-0.2701,0,0,0,0,0,-0.2672,-0.2699,-0.2738,-0.2767,-0.2784,-0.28,-0.2815,-0.2815,-0.2828,-0.2826,-0.2814,-0.281,-0.2815,-0.2808,-0.2816,-0.2834,-0.2815,-0.2836,-0.2842,-0.2847,-0.2835,-0.2827,-0.2829,-0.2806,-0.2806,-0.2805,0,0,-0.2671,-0.27,-0.2713,-0.2765,-0.2783,-0.2809,-0.2802,-0.2833,-0.2841,-0.2822,-0.2828,-0.2832,-0.283,-0.2846,-0.285,-0.2833,-0.2848,-0.2853,-0.2857,-0.2842,-0.2832,-0.2834,-0.2835,-0.2809,-0.2808,-0.2808,0,0,-0.2682,-0.2714,-0.2734,-0.2764,-0.2802,-0.282,-0.2829,-0.2862,-0.2861,-0.2888,-0.2871,-0.2879,-0.2892,-0.2883,-0.288,-0.2933,-0.2886,-0.294,-0.2938,-0.2931,-0.2931,-0.2931,-0.2914,-0.2912,-0.2934,-0.2934,-0.2934,0,-0.2674,-0.2708,-0.2747,-0.2776,-0.2794,-0.2823,-0.2842,-0.2862,-0.2891,-0.2895,-0.2889,-0.2911,-0.2904,-0.2909,-0.2925,-0.2938,-0.2926,-0.2901,-0.2933,-0.2933,-0.2933,-0.2914,-0.2912,-0.2935,-0.2935,-0.2935,-0.2935,0,-0.2695,-0.2721,-0.2742,-0.278,-0.2811,-0.284,-0.2876,-0.2897,-0.2903,-0.2915,-0.2933,-0.2941,-0.2944,-0.2952,-0.2948,-0.2951,-0.2941,-0.2942,-0.29,-0.2934,-0.2915,-0.2912,-0.2937,-0.2936,-0.2936,-0.2936,0,0,-0.2665,-0.2739,-0.274,-0.2755,-0.2813,-0.284,-0.2871,-0.2904,-0.2917,-0.2938,-0.2948,-0.296,-0.296,-0.296,-0.2959,-0.2952,-0.2943,-0.2944,-0.2943,-0.29,-0.2916,-0.2829,-0.2818,-0.2945,-0.2945,-0.2944,-0.2903,0,-0.2656,-0.2699,-0.2742,-0.2772,-0.2795,-0.2841,-0.2872,-0.2906,-0.2932,-0.2958,-0.2961,-0.2977,-0.2964,-0.2969,-0.2959,-0.2963,-0.2937,-0.2953,-0.2912,-0.291,-0.2806,-0.2812,-0.2709,-0.2656,-0.29,-0.29,-0.2899,0,-0.2642,-0.2678,-0.2705,-0.2768,-0.2783,-0.2807,-0.2856,-0.2888,-0.2937,-0.296,-0.2971,-0.2985,-0.2986,-0.2973,-0.2952,-0.2964,-0.293,-0.2921,-0.2919,-0.2826,-0.2818,-0.2665,-0.2642,-0.263,-0.2895,-0.2896,-0.2896,0,-0.2578,-0.2644,-0.2661,-0.2682,-0.2763,-0.2779,-0.2817,-0.2875,-0.2904,-0.2953,-0.2976,-0.2989,-0.299,-0.2969,-0.2939,-0.2951,-0.2906,-0.2923,-0.2802,-0.2796,-0.2692,-0.2676,-0.2625,-0.2876,-0.2876,-0.2876,-0.2876,0,-0.2542,-0.2553,-0.2632,-0.2642,-0.2668,-0.2739,-0.277,-0.2816,-0.2883,-0.2911,-0.2959,-0.2971,-0.2987,-0.2967,-0.2941,-0.2854,-0.2899,-0.2787,-0.2773,-0.2695,-0.2681,-0.2653,-0.2674,-0.2875,-0.2875,-0.2875,-0.2875,0,-0.2456,-0.251,-0.2534,-0.2614,-0.2634,-0.2648,-0.2732,-0.2761,-0.2836,-0.2873,-0.2887,-0.295,-0.2927,-0.2914,-0.2883,-0.2835,-0.2726,-0.2726,-0.2626,-0.2599,-0.2479,-0.2505,-0.2411,-0.2345,-0.2602,-0.26,-0.2598,0,-0.2412,-0.2415,-0.2488,-0.2498,-0.2528,-0.257,-0.2602,-0.2708,-0.2746,-0.2846,-0.2853,-0.2863,-0.2827,-0.2754,-0.2692,-0.2609,-0.2605,-0.2462,-0.2457,-0.2438,-0.2459,-0.2473,-0.2428,-0.2335,-0.2331,-0.2328,-0.2325,0,-0.2318,-0.2344,-0.2365,-0.2393,-0.2421,-0.2461,-0.2518,-0.2547,-0.2667,-0.2701,-0.2726,-0.2706,-0.2657,-0.2534,-0.2437,-0.2382,-0.2405,-0.2388,-0.2398,-0.2256,-0.2239,-0.2181,-0.2406,-0.2295,-0.2298,-0.23,-0.2302,-0.2303,-0.2229,-0.2222,-0.2249,-0.2261,-0.2296,-0.2316,-0.2304,-0.2384,-0.2412,-0.2434,-0.2526,-0.246,-0.2415,-0.2265,-0.2213,-0.2106,-0.2163,-0.2058,-0.2095,-0.2115,-0.203,-0.2175,-0.2032,-0.2033,-0.2034,-0.2035,-0.2036,0,-0.2104,-0.2107,-0.2115,-0.2125,-0.2106,-0.2173,-0.2214,-0.218,-0.2156,-0.2215,-0.2201,-0.2156,-0.2034,-0.2016,-0.1929,-0.185,-0.182,-0.1821,-0.1839,-0.1808,-0.1953,-0.1918,-0.1706,-0.1706,-0.1706,-0.1706,-0.1706,-0.1706,-0.2037,-0.1993,-0.1999,-0.1917,-0.1922,-0.1853,-0.184,-0.1816,-0.1826,-0.1767,-0.1769,-0.1802,-0.1809,-0.193,-0.183,-0.175,-0.1723,-0.1657,-0.1694,-0.1836,-0.1862,-0.1888,-0.1859,-0.1639,-0.1639,-0.1485,-0.1484,-0.1483]},{"header":{"parameterUnit":"m.s-1","parameterCategory":2,"la1":30.2991,"la2":30.254,"lo1":-89.0895,"lo2":-89.0444,"dy":0.0017,"dx":0.0017,"nx":28,"ny":28,"refTime":"2025-04-19T21:00:00:Z","depth":"0","parameterNumber":3,"parameterNumberName":"V-component_of_CURRENTS"},"data":[0,0,0,0,0,0,0,0,0,0,0,0,0,0,0,0,0,0,0,0,0,0,0,0,0,0,0,0,0,0,0,0,0,0,0,0,0,0,0,0,0,0,0,0,0,0,0,0,0,0,0,0,0,0,0,0,0,0,-0.0258,-0.0257,0,-0.0146,-0.0145,-0.0143,-0.0057,-0.0056,-0.0055,-0.0055,0.0087,0.0091,0.0094,0,0,0,0,0,0,0,0,0,0,0,0,0,-0.0316,-0.0316,-0.0258,-0.0257,-0.0256,-0.0146,-0.0145,-0.0143,-0.0057,-0.0056,-0.0055,-0.0054,0.0086,0.009,0.0094,0,0,0,0,0,0,0,0,0,0,0,0,0,-0.0255,-0.0316,-0.0258,-0.0201,-0.0195,-0.0147,-0.0145,-0.0142,-0.0057,-0.0056,-0.0055,-0.0054,0.0085,0.009,0.0094,0.0105,0,0,0.0109,0.0111,0,0,0,0,0,0,0,0,-0.0258,-0.0252,-0.0211,-0.0205,-0.0198,-0.0116,-0.0113,-0.0059,-0.0057,-0.0107,-0.0055,-0.0054,0.002,0.003,0.0052,0.0112,0.0118,0.011,0.0112,0.0115,0.0116,0,0,0,0,0,0,0,-0.0263,-0.0256,-0.0212,-0.021,-0.0202,-0.0153,-0.0144,-0.0102,-0.0048,-0.0103,-0.0097,-0.0088,0.0024,0.0047,0.0056,0.012,0.0109,0.0114,0.0117,0.0119,0.0238,0.0239,0,0,0,0,0,0,-0.0286,-0.0261,-0.0215,-0.0208,-0.0229,-0.0154,-0.0143,-0.0142,-0.0049,-0.0035,-0.0089,-0.0084,0.0038,0.005,0.0061,0.0096,0.0114,0.0119,0.0122,0.0238,0.0238,0.0239,0,0,0,0,0,0,-0.0288,-0.0284,-0.022,-0.0233,-0.0222,-0.0155,-0.0153,-0.014,-0.0117,-0.0039,-0.0024,-0.0079,0.004,0.0054,0.0104,0.0101,0.0121,0.0126,0.0238,0.0238,0.0238,0.0155,0,0,0,0,0,0,-0.0291,-0.0285,-0.0294,-0.0235,-0.0222,-0.02,-0.0154,-0.0139,-0.0114,-0.0107,-0.0026,-0.0012,0.0041,0.0096,0.0109,0.0108,0.0129,0.0237,0.0238,0.0238,0.0157,0.0152,0.0148,0,0,0,0,0,-0.0293,-0.0314,-0.0295,-0.029,-0.0236,-0.0201,-0.019,-0.0136,-0.0115,-0.0111,-0.0049,-0.0014,0.0109,0.01,0.0115,0.0116,0.0237,0.0238,0.0238,0.0159,0.0153,0.0148,0,0,0,0,0,0,-0.0345,-0.0306,-0.0284,-0.0292,-0.0253,-0.0187,-0.0183,-0.0147,-0.0095,-0.0089,-0.0012,0.0006,0.0049,0.0094,0.0082,0.0154,0.0179,0.0183,0.0114,0.0109,0.0105,0.0087,0.0133,0,0,0,0,0,-0.0363,-0.0367,-0.0316,-0.0322,-0.0309,-0.0248,-0.0228,-0.0193,-0.014,-0.0116,-0.0058,0.0007,0.0062,0.0093,0.0146,0.0181,0.023,0.0193,0.0188,0.0184,0.0181,0.0251,0.0253,0.0241,0.0241,0.0241,0,0,-0.0385,-0.0364,-0.0366,-0.0333,-0.03,-0.0285,-0.0233,-0.0213,-0.0192,-0.0111,-0.0069,-0.0012,0.0067,0.0111,0.0134,0.0149,0.0214,0.0185,0.0181,0.018,0.0252,0.0253,0.0254,0.0241,0.0241,0.0241,0,0,-0.0431,-0.0414,-0.0429,-0.0402,-0.0363,-0.0323,-0.0323,-0.0262,-0.0227,-0.0184,-0.0116,-0.006,0.0018,0.0081,0.0122,0.0123,0.0183,0.0138,0.0105,0.0173,0.0174,0.0176,0.0235,0.0243,0.014,0.014,0.014,0,-0.046,-0.0467,-0.0428,-0.043,-0.0412,-0.0346,-0.0349,-0.0306,-0.0234,-0.0202,-0.0183,-0.0052,0.0007,0.0079,0.0081,0.0112,0.0157,0.0114,0.0165,0.0168,0.0171,0.0232,0.0241,0.0136,0.0136,0.0137,0.0137,0,-0.0507,-0.051,-0.0518,-0.0496,-0.0472,-0.0467,-0.0404,-0.0374,-0.0327,-0.0272,-0.02,-0.0114,-0.0031,-0.0006,0.0037,0.0093,0.0119,0.0145,0.0172,0.0167,0.0232,0.0243,0.013,0.0132,0.0133,0.0134,0,0,-0.0575,-0.0557,-0.0558,-0.0556,-0.0506,-0.0493,-0.0461,-0.0405,-0.0377,-0.0304,-0.0255,-0.0162,-0.0108,-0.0058,0.0009,0.0064,0.0121,0.0104,0.011,0.015,0.0266,0.0303,0.0319,0.0153,0.0155,0.0156,0.03,0,-0.0621,-0.0649,-0.0616,-0.0626,-0.0632,-0.0562,-0.0536,-0.0475,-0.0408,-0.0344,-0.0244,-0.0177,-0.0127,-0.0091,-0.0025,0.0092,0.0148,0.0079,0.0276,0.0282,0.0305,0.0333,0.0367,0.05,0.0311,0.0313,0.0315,0,-0.0671,-0.0683,-0.071,-0.0688,-0.0682,-0.0674,-0.0614,-0.058,-0.0471,-0.0417,-0.0326,-0.0241,-0.0133,-0.0103,0.0089,0.0042,0.014,0.0223,0.0231,0.0303,0.0341,0.0479,0.0529,0.0675,0.0333,0.0331,0.033,0,-0.0736,-0.0741,-0.0767,-0.0761,-0.0728,-0.072,-0.0694,-0.0605,-0.057,-0.046,-0.0419,-0.0274,-0.0194,-0.0056,0.0123,0.0107,0.033,0.0337,0.0462,0.0466,0.0555,0.0563,0.0761,0.0457,0.0457,0.0457,0.0456,0,-0.0794,-0.0812,-0.0804,-0.082,-0.0842,-0.0788,-0.078,-0.0728,-0.0642,-0.0591,-0.0465,-0.0384,-0.0181,-0.0023,0.0121,0.0341,0.034,0.0466,0.0511,0.0526,0.053,0.0709,0.075,0.0462,0.0461,0.046,0.0459,0,-0.0857,-0.0851,-0.0884,-0.0877,-0.0877,-0.0892,-0.0856,-0.084,-0.0752,-0.068,-0.0649,-0.0452,-0.0236,-0.0028,0.0223,0.0346,0.0634,0.0611,0.0611,0.0653,0.0883,0.0917,0.1141,0.1218,0.0769,0.0771,0.0773,0,-0.089,-0.0916,-0.0943,-0.097,-0.0972,-0.0982,-0.0984,-0.0909,-0.0878,-0.0709,-0.0675,-0.0455,-0.0266,0.0117,0.0372,0.0646,0.0741,0.0817,0.0789,0.0915,0.0987,0.1001,0.1049,0.0878,0.088,0.0882,0.0883,0,-0.0953,-0.0963,-0.0992,-0.1056,-0.108,-0.1095,-0.1085,-0.1076,-0.0961,-0.0862,-0.0679,-0.0512,-0.0131,0.0218,0.0559,0.0719,0.0917,0.0862,0.1011,0.1103,0.1117,0.1206,0.0754,0.09,0.0898,0.0897,0.0896,0.0895,-0.0994,-0.1037,-0.108,-0.1133,-0.1167,-0.1188,-0.1185,-0.1131,-0.105,-0.0858,-0.0694,-0.0383,0.0081,0.0583,0.0761,0.1129,0.1072,0.1234,0.127,0.1278,0.1338,0.0911,0.109,0.109,0.1089,0.1089,0.1088,0,-0.1039,-0.1084,-0.115,-0.1207,-0.1251,-0.1245,-0.1229,-0.1172,-0.1054,-0.0831,-0.0605,-0.0033,0.0426,0.0838,0.1342,0.1533,0.1558,0.1627,0.167,0.1703,0.1362,0.1354,0.1576,0.1576,0.1576,0.1576,0.1576,0.1576,-0.1063,-0.1135,-0.1171,-0.1256,-0.1292,-0.1302,-0.1282,-0.1151,-0.0976,-0.0579,-0.0221,0.0063,0.0637,0.1424,0.1887,0.1923,0.2068,0.205,0.2125,0.1901,0.1867,0.1835,0.1841,0.2162,0.2162,0.246,0.2463,0.2465]}],[{"header":{"parameterUnit":"m.s-1","parameterCategory":2,"la1":30.2991,"la2":30.254,"lo1":-89.0895,"lo2":-89.0444,"dy":0.0017,"dx":0.0017,"nx":28,"ny":28,"refTime":"2025-04-19T21:00:00:Z","depth":"2","parameterNumber":2,"parameterNumberName":"U-component_of_CURRENTS"},"data":[0,0,0,0,0,0,0,0,0,0,0,0,0,0,0,0,0,0,0,0,0,0,0,0,0,0,0,0,0,0,0,0,0,0,0,0,0,0,0,0,0,0,0,0,0,0,0,0,0,0,0,0,0,0,0,0,0,0,-0.2534,-0.2534,0,-0.2575,-0.2576,-0.2576,-0.2538,-0.2536,-0.2535,-0.2534,-0.2488,-0.2488,-0.2488,0,0,0,0,0,0,0,0,0,0,0,0,0,-0.2429,-0.2431,-0.2534,-0.2534,-0.2535,-0.2575,-0.2576,-0.2576,-0.2538,-0.2536,-0.2535,-0.2533,-0.2488,-0.2488,-0.2488,0,0,0,0,0,0,0,0,0,0,0,0,0,-0.2471,-0.2432,-0.2534,-0.2523,-0.2522,-0.2575,-0.2576,-0.2576,-0.2538,-0.2536,-0.2534,-0.2532,-0.2488,-0.2488,-0.2488,-0.2528,0,0,-0.2488,-0.2488,0,0,0,0,0,0,0,0,-0.2469,-0.2474,-0.2524,-0.2524,-0.2523,-0.2551,-0.2522,-0.2556,-0.2539,-0.253,-0.2534,-0.2531,-0.2504,-0.2503,-0.2513,-0.2525,-0.2523,-0.2488,-0.2488,-0.2488,-0.2488,0,0,0,0,0,0,0,-0.2466,-0.2472,-0.2548,-0.2525,-0.2525,-0.2519,-0.2522,-0.2529,-0.2524,-0.253,-0.2528,-0.2537,-0.2503,-0.2513,-0.2511,-0.2523,-0.2488,-0.2488,-0.2488,-0.2488,-0.2562,-0.2564,0,0,0,0,0,0,-0.2468,-0.247,-0.2546,-0.2549,-0.2493,-0.2523,-0.2526,-0.2542,-0.2526,-0.2523,-0.2539,-0.2536,-0.2514,-0.2511,-0.2509,-0.2528,-0.2488,-0.2488,-0.2488,-0.256,-0.2562,-0.2564,0,0,0,0,0,0,-0.2466,-0.2475,-0.2545,-0.2512,-0.252,-0.2527,-0.2545,-0.2544,-0.2549,-0.2534,-0.2528,-0.2543,-0.2512,-0.2509,-0.2525,-0.2526,-0.2488,-0.2488,-0.2558,-0.2561,-0.2563,-0.2582,0,0,0,0,0,0,-0.2463,-0.2474,-0.2484,-0.2512,-0.2523,-0.2577,-0.2547,-0.2547,-0.2559,-0.2554,-0.2536,-0.253,-0.251,-0.2526,-0.2525,-0.2526,-0.2488,-0.2555,-0.2559,-0.2562,-0.2579,-0.2585,-0.2591,0,0,0,0,0,-0.2459,-0.2486,-0.2484,-0.2493,-0.2537,-0.2579,-0.2584,-0.2579,-0.2561,-0.2573,-0.2566,-0.253,-0.2548,-0.2528,-0.2527,-0.2527,-0.2553,-0.2558,-0.2562,-0.2576,-0.2584,-0.2591,0,0,0,0,0,0,-0.2446,-0.2486,-0.2484,-0.2521,-0.2547,-0.2573,-0.2587,-0.2586,-0.2593,-0.2584,-0.256,-0.2555,-0.2568,-0.2561,-0.254,-0.2565,-0.2544,-0.2548,-0.2555,-0.2562,-0.2568,-0.255,-0.2488,0,0,0,0,0,-0.2451,-0.2476,-0.2512,-0.2539,-0.2556,-0.2572,-0.2587,-0.2589,-0.2602,-0.2602,-0.2593,-0.2589,-0.2591,-0.2586,-0.2592,-0.2609,-0.2589,-0.2612,-0.2617,-0.2622,-0.2611,-0.2601,-0.2603,-0.2579,-0.2579,-0.2579,0,0,-0.2451,-0.2478,-0.249,-0.2538,-0.2556,-0.2581,-0.2575,-0.2607,-0.2616,-0.2598,-0.2608,-0.2611,-0.2605,-0.262,-0.2625,-0.2608,-0.2623,-0.2628,-0.2631,-0.2618,-0.2605,-0.2607,-0.2609,-0.2582,-0.2581,-0.2581,0,0,-0.2463,-0.2493,-0.2512,-0.254,-0.2578,-0.2594,-0.2604,-0.2637,-0.2639,-0.2666,-0.265,-0.2658,-0.2669,-0.2658,-0.2654,-0.2702,-0.2659,-0.2708,-0.2711,-0.2701,-0.2702,-0.2702,-0.2685,-0.2683,-0.2704,-0.2704,-0.2704,0,-0.2457,-0.2488,-0.2525,-0.2552,-0.257,-0.2599,-0.2618,-0.2638,-0.2667,-0.2672,-0.267,-0.2688,-0.2682,-0.2683,-0.2698,-0.2708,-0.2697,-0.2677,-0.2704,-0.2704,-0.2704,-0.2686,-0.2684,-0.2705,-0.2705,-0.2705,-0.2705,0,-0.2477,-0.2503,-0.2523,-0.2558,-0.2588,-0.2617,-0.2651,-0.2674,-0.2684,-0.2695,-0.2713,-0.2719,-0.2721,-0.2728,-0.2723,-0.2725,-0.2715,-0.2714,-0.2675,-0.2707,-0.2687,-0.2685,-0.2707,-0.2707,-0.2706,-0.2706,0,0,-0.2449,-0.2519,-0.2522,-0.2537,-0.2593,-0.2619,-0.2649,-0.268,-0.2694,-0.2718,-0.2728,-0.2738,-0.2741,-0.2738,-0.2737,-0.2728,-0.2722,-0.2721,-0.272,-0.2683,-0.2695,-0.2615,-0.2604,-0.2723,-0.2723,-0.2723,-0.2682,0,-0.2443,-0.2484,-0.2524,-0.2555,-0.2578,-0.2622,-0.2651,-0.2684,-0.271,-0.2736,-0.2739,-0.2755,-0.2744,-0.2751,-0.2741,-0.274,-0.2717,-0.2733,-0.2687,-0.2685,-0.2593,-0.2599,-0.2409,-0.235,-0.2679,-0.2678,-0.2678,0,-0.243,-0.2464,-0.2493,-0.2553,-0.2568,-0.2592,-0.264,-0.267,-0.2716,-0.274,-0.2752,-0.2765,-0.2766,-0.2756,-0.2731,-0.2744,-0.2713,-0.2701,-0.2699,-0.261,-0.26,-0.2373,-0.2333,-0.2674,-0.2674,-0.2674,-0.2675,0,-0.2372,-0.2435,-0.2454,-0.2474,-0.2551,-0.2569,-0.2606,-0.2661,-0.2688,-0.2737,-0.276,-0.277,-0.2771,-0.275,-0.272,-0.2731,-0.2684,-0.2697,-0.2586,-0.2581,-0.24,-0.2379,-0.2653,-0.2653,-0.2653,-0.2653,-0.2653,0,-0.2339,-0.2352,-0.2428,-0.2439,-0.2466,-0.2534,-0.2566,-0.261,-0.2673,-0.2697,-0.2747,-0.2755,-0.2769,-0.2748,-0.2722,-0.2637,-0.2677,-0.2574,-0.2559,-0.2405,-0.2385,-0.2653,-0.2653,-0.2652,-0.2652,-0.2652,-0.2653,0,-0.226,-0.2312,-0.2338,-0.2416,-0.2436,-0.2452,-0.2533,-0.2559,-0.2632,-0.2666,-0.2681,-0.2737,-0.2712,-0.27,-0.2666,-0.2619,-0.2566,-0.2515,-0.233,-0.2293,-0.2472,-0.2474,-0.2404,-0.24,-0.2397,-0.2395,-0.2393,0,-0.222,-0.2225,-0.2297,-0.2308,-0.2338,-0.2382,-0.2412,-0.2512,-0.2545,-0.2638,-0.2641,-0.2652,-0.2612,-0.2539,-0.2471,-0.2389,-0.2466,-0.2172,-0.2153,-0.245,-0.2444,-0.2451,-0.2457,-0.1929,-0.1923,-0.1918,-0.1915,0,-0.2133,-0.216,-0.2181,-0.221,-0.2239,-0.2274,-0.2328,-0.2349,-0.2462,-0.2491,-0.2506,-0.2485,-0.2431,-0.2261,-0.2171,-0.2107,-0.218,-0.2076,-0.2414,-0.2028,-0.2,-0.1995,-0.2017,-0.1874,-0.1878,-0.1881,-0.1883,-0.1885,-0.205,-0.2044,-0.2072,-0.2085,-0.2119,-0.2131,-0.2112,-0.218,-0.2197,-0.2195,-0.2289,-0.2183,-0.2163,-0.1917,-0.1827,-0.1766,-0.1916,-0.1831,-0.1846,-0.1866,-0.1824,-0.1794,-0.1621,-0.1623,-0.1626,-0.1628,-0.1629,0,-0.1932,-0.1936,-0.1944,-0.1951,-0.1928,-0.1996,-0.202,-0.1966,-0.1923,-0.1948,-0.1919,-0.168,-0.158,-0.1569,-0.1411,-0.1391,-0.1387,-0.1336,-0.1328,-0.1368,-0.1404,-0.1341,-0.1008,-0.1007,-0.1005,-0.1004,0,0,-0.1868,-0.1825,-0.1828,-0.1743,-0.1748,-0.1666,-0.1643,-0.1577,-0.155,-0.1411,-0.1348,-0.1467,-0.1498,-0.1242,-0.1196,-0.1074,-0.1208,-0.1021,-0.1515,-0.1543,-0.1577,-0.1682,-0.1628,0,0,0,0,0]},{"header":{"parameterUnit":"m.s-1","parameterCategory":2,"la1":30.2991,"la2":30.254,"lo1":-89.0895,"lo2":-89.0444,"dy":0.0017,"dx":0.0017,"nx":28,"ny":28,"refTime":"2025-04-19T21:00:00:Z","depth":"2","parameterNumber":3,"parameterNumberName":"V-component_of_CURRENTS"},"data":[0,0,0,0,0,0,0,0,0,0,0,0,0,0,0,0,0,0,0,0,0,0,0,0,0,0,0,0,0,0,0,0,0,0,0,0,0,0,0,0,0,0,0,0,0,0,0,0,0,0,0,0,0,0,0,0,0,0,-0.0312,-0.0311,0,-0.0205,-0.0203,-0.0202,-0.0123,-0.0123,-0.0122,-0.0122,0.0012,0.0015,0.0018,0,0,0,0,0,0,0,0,0,0,0,0,0,-0.037,-0.037,-0.0312,-0.0311,-0.0309,-0.0205,-0.0203,-0.0202,-0.0123,-0.0123,-0.0122,-0.0122,0.0011,0.0015,0.0019,0,0,0,0,0,0,0,0,0,0,0,0,0,-0.0311,-0.037,-0.0312,-0.0259,-0.0253,-0.0205,-0.0203,-0.0201,-0.0124,-0.0123,-0.0122,-0.0121,0.001,0.0015,0.0019,0.0033,0,0,0.0033,0.0035,0,0,0,0,0,0,0,0,-0.0314,-0.0308,-0.0268,-0.0263,-0.0256,-0.0178,-0.0175,-0.0122,-0.0124,-0.0171,-0.0122,-0.0121,-0.0051,-0.0041,-0.002,0.0039,0.0045,0.0034,0.0037,0.0039,0.004,0,0,0,0,0,0,0,-0.0319,-0.0312,-0.0267,-0.0267,-0.026,-0.0214,-0.0205,-0.0164,-0.0114,-0.0167,-0.0161,-0.0153,-0.0047,-0.0025,-0.0016,0.0047,0.0034,0.0038,0.0041,0.0043,0.0159,0.0159,0,0,0,0,0,0,-0.0341,-0.0317,-0.0271,-0.0264,-0.0286,-0.0214,-0.0204,-0.0203,-0.0115,-0.0102,-0.0153,-0.0149,-0.0033,-0.0022,-0.0011,0.0024,0.0039,0.0043,0.0046,0.0158,0.0159,0.0159,0,0,0,0,0,0,-0.0342,-0.0338,-0.0275,-0.0289,-0.0278,-0.0215,-0.0213,-0.0201,-0.0179,-0.0106,-0.0091,-0.0144,-0.0032,-0.0018,0.003,0.0029,0.0045,0.0049,0.0158,0.0158,0.0159,0.0086,0,0,0,0,0,0,-0.0345,-0.0339,-0.0347,-0.0291,-0.0278,-0.0255,-0.0213,-0.0199,-0.0175,-0.0169,-0.0093,-0.008,-0.003,0.0023,0.0035,0.0036,0.0053,0.0158,0.0158,0.0159,0.0088,0.0083,0.008,0,0,0,0,0,-0.0347,-0.0365,-0.0348,-0.0342,-0.0291,-0.0256,-0.0245,-0.0195,-0.0176,-0.0171,-0.0114,-0.0082,0.0035,0.0027,0.0041,0.0043,0.0157,0.0158,0.0159,0.0089,0.0084,0.008,0,0,0,0,0,0,-0.0394,-0.0357,-0.0337,-0.0343,-0.0305,-0.0243,-0.0237,-0.0204,-0.0155,-0.015,-0.0079,-0.0061,-0.002,0.0022,0.0011,0.008,0.0102,0.0105,0.0044,0.004,0.0036,0.0019,0.0057,0,0,0,0,0,-0.041,-0.0413,-0.0365,-0.0369,-0.0356,-0.0299,-0.0279,-0.0247,-0.0196,-0.0174,-0.0119,-0.0059,-0.0007,0.0023,0.0072,0.0107,0.0152,0.012,0.0116,0.0112,0.0109,0.0174,0.0175,0.0161,0.0161,0.0161,0,0,-0.043,-0.041,-0.0411,-0.0379,-0.0347,-0.0332,-0.0285,-0.0264,-0.0243,-0.0168,-0.0128,-0.0075,-0.0002,0.0041,0.0064,0.0077,0.014,0.0113,0.0109,0.0108,0.0175,0.0176,0.0177,0.0162,0.0162,0.0161,0,0,-0.047,-0.0454,-0.0467,-0.0441,-0.0403,-0.0365,-0.0365,-0.0306,-0.0273,-0.0231,-0.017,-0.0117,-0.0042,0.0017,0.0055,0.0059,0.0113,0.0072,0.0044,0.0106,0.0108,0.0109,0.0164,0.0171,0.0075,0.0074,0.0074,0,-0.0496,-0.0502,-0.0464,-0.0465,-0.0447,-0.0386,-0.0387,-0.0346,-0.0277,-0.0247,-0.023,-0.0107,-0.0052,0.0017,0.002,0.0049,0.0089,0.0052,0.01,0.0103,0.0106,0.0161,0.017,0.0071,0.0071,0.0072,0.0072,0,-0.0537,-0.0539,-0.0545,-0.0524,-0.05,-0.0493,-0.0433,-0.0405,-0.0361,-0.0309,-0.0241,-0.016,-0.0082,-0.0059,-0.0018,0.0035,0.0058,0.0081,0.0105,0.0102,0.0161,0.0172,0.0066,0.0067,0.0068,0.0069,0,0,-0.06,-0.058,-0.0581,-0.058,-0.0531,-0.0517,-0.0485,-0.0432,-0.0407,-0.0336,-0.029,-0.02,-0.0151,-0.0105,-0.0042,0.0011,0.0065,0.0047,0.0052,0.0089,0.0198,0.0226,0.0241,0.0094,0.0095,0.0097,0.0228,0,-0.0641,-0.0665,-0.0633,-0.0641,-0.0645,-0.0579,-0.0553,-0.0495,-0.0433,-0.0374,-0.0278,-0.0217,-0.0168,-0.0134,-0.0071,0.0036,0.009,0.0027,0.0205,0.0211,0.0228,0.0254,0.0203,0.0317,0.0239,0.024,0.0242,0,-0.0686,-0.0696,-0.0719,-0.0698,-0.0692,-0.0684,-0.0628,-0.0595,-0.0494,-0.0443,-0.0358,-0.0279,-0.0176,-0.0146,0.0033,-0.001,0.0082,0.0159,0.0167,0.0226,0.0259,0.0311,0.0339,0.026,0.0259,0.0257,0.0256,0,-0.0748,-0.0751,-0.0774,-0.0767,-0.0735,-0.0728,-0.0703,-0.062,-0.0588,-0.0486,-0.0448,-0.0311,-0.0239,-0.0107,0.0061,0.0047,0.0253,0.0261,0.0374,0.0378,0.0387,0.0388,0.0375,0.0375,0.0375,0.0374,0.0374,0,-0.0802,-0.0818,-0.081,-0.0824,-0.0846,-0.0794,-0.0788,-0.0739,-0.066,-0.0617,-0.0492,-0.0421,-0.0229,-0.0082,0.0057,0.0259,0.026,0.0378,0.0419,0.036,0.0358,0.035,0.0345,0.0379,0.0378,0.0377,0.0376,0,-0.0862,-0.0855,-0.0886,-0.0878,-0.0879,-0.0894,-0.0862,-0.085,-0.0767,-0.0705,-0.0676,-0.0493,-0.0293,-0.0094,0.014,0.0257,0.044,0.0506,0.0422,0.0451,0.052,0.051,0.0644,0.0647,0.0649,0.065,0.0651,0,-0.0894,-0.0918,-0.0943,-0.097,-0.0972,-0.0983,-0.0987,-0.0917,-0.089,-0.0739,-0.071,-0.0508,-0.034,0.0019,0.0254,0.0512,0.0509,0.0601,0.0567,0.0524,0.055,0.0537,0.0525,0.0552,0.0552,0.0553,0.0553,0,-0.0955,-0.0963,-0.0992,-0.1054,-0.1079,-0.1096,-0.1089,-0.1084,-0.098,-0.0894,-0.0735,-0.0587,-0.024,0.0044,0.0366,0.0506,0.0555,0.0616,0.0616,0.0485,0.0446,0.0469,0.0458,0.0556,0.0556,0.0555,0.0555,0.0555,-0.0994,-0.1035,-0.1077,-0.113,-0.1165,-0.119,-0.1192,-0.1147,-0.1081,-0.0919,-0.0771,-0.051,-0.0257,0.0215,0.0429,0.0626,0.063,0.0665,0.0661,0.0656,0.0616,0.0582,0.0709,0.071,0.071,0.0711,0.0711,0,-0.104,-0.1083,-0.1147,-0.1205,-0.1252,-0.1247,-0.124,-0.1197,-0.1102,-0.0918,-0.0724,-0.0415,-0.009,0.0183,0.0495,0.0676,0.0647,0.0696,0.0614,0.061,0.0607,0.0561,0.0642,0.0642,0.0643,0.0643,0,0,-0.1063,-0.1134,-0.1167,-0.1257,-0.1296,-0.1318,-0.1306,-0.1208,-0.1066,-0.0866,-0.0659,-0.0393,-0.0067,0.0133,0.035,0.0508,0.0511,0.0519,0.0554,0.0427,0.0422,0.057,0.0492,0,0,0,0,0]}],[{"header":{"parameterUnit":"m.s-1","parameterCategory":2,"la1":30.2991,"la2":30.254,"lo1":-89.0895,"lo2":-89.0444,"dy":0.0017,"dx":0.0017,"nx":28,"ny":28,"refTime":"2025-04-19T21:00:00:Z","depth":"4","parameterNumber":2,"parameterNumberName":"U-component_of_CURRENTS"},"data":[0,0,0,0,0,0,0,0,0,0,0,0,0,0,0,0,0,0,0,0,0,0,0,0,0,0,0,0,0,0,0,0,0,0,0,0,0,0,0,0,0,0,0,0,0,0,0,0,0,0,0,0,0,0,0,0,0,0,-0.1719,-0.172,0,-0.1798,-0.1798,-0.1799,-0.1823,-0.1823,-0.1823,-0.1822,-0.1863,-0.1864,-0.1866,0,0,0,0,0,0,0,0,0,0,0,0,0,-0.1601,-0.1603,-0.1719,-0.172,-0.1721,-0.1797,-0.1798,-0.1799,-0.1823,-0.1823,-0.1823,-0.1822,-0.1863,-0.1864,-0.1866,0,0,0,0,0,0,0,0,0,0,0,0,0,-0.1661,-0.1603,-0.1719,-0.1744,-0.1747,-0.1797,-0.1798,-0.1799,-0.1823,-0.1823,-0.1823,-0.1822,-0.1862,-0.1864,-0.1866,-0.1884,0,0,-0.1872,-0.1873,0,0,0,0,0,0,0,0,-0.1658,-0.1665,-0.1739,-0.1742,-0.1746,-0.1802,-0.1772,-0.1827,-0.1823,-0.1792,-0.1822,-0.1822,-0.184,-0.1844,-0.1858,-0.1886,-0.1888,-0.1872,-0.1873,-0.1874,-0.1874,0,0,0,0,0,0,0,-0.1654,-0.1662,-0.1748,-0.174,-0.1744,-0.1755,-0.1763,-0.1782,-0.1815,-0.1795,-0.1797,-0.1809,-0.1842,-0.1856,-0.1859,-0.1889,-0.1872,-0.1874,-0.1875,-0.1876,-0.1986,-0.1988,0,0,0,0,0,0,-0.1648,-0.1658,-0.1746,-0.1751,-0.1702,-0.1757,-0.1766,-0.1783,-0.1816,-0.1821,-0.1809,-0.181,-0.1853,-0.1856,-0.186,-0.1924,-0.1874,-0.1876,-0.1877,-0.1984,-0.1986,-0.1988,0,0,0,0,0,0,-0.1645,-0.1655,-0.1743,-0.1707,-0.1719,-0.176,-0.1778,-0.1784,-0.1824,-0.1828,-0.1832,-0.1845,-0.1852,-0.1857,-0.1907,-0.1924,-0.1877,-0.1878,-0.1982,-0.1985,-0.1987,-0.2027,0,0,0,0,0,0,-0.1641,-0.1653,-0.1677,-0.1707,-0.1721,-0.179,-0.1779,-0.1786,-0.1831,-0.1833,-0.1859,-0.1861,-0.1853,-0.1904,-0.1909,-0.1926,-0.188,-0.198,-0.1983,-0.1986,-0.2023,-0.2031,-0.2037,0,0,0,0,0,-0.1637,-0.1668,-0.1678,-0.169,-0.1748,-0.1791,-0.18,-0.1825,-0.1833,-0.1859,-0.1881,-0.1862,-0.1928,-0.1908,-0.1913,-0.1931,-0.1978,-0.1982,-0.1986,-0.202,-0.2029,-0.2037,0,0,0,0,0,0,-0.1633,-0.1675,-0.1686,-0.173,-0.1766,-0.1796,-0.183,-0.1845,-0.1885,-0.1896,-0.1892,-0.1897,-0.1942,-0.1942,-0.1919,-0.1974,-0.1947,-0.1952,-0.1971,-0.198,-0.1986,-0.1969,-0.1881,0,0,0,0,0,-0.1642,-0.1678,-0.1714,-0.1753,-0.1774,-0.1808,-0.1835,-0.1854,-0.1887,-0.1905,-0.1925,-0.1945,-0.196,-0.1975,-0.1992,-0.2031,-0.2006,-0.2045,-0.2052,-0.2057,-0.2048,-0.2035,-0.2039,-0.2001,-0.2001,-0.2001,0,0,-0.1652,-0.1681,-0.1702,-0.1755,-0.1787,-0.182,-0.1824,-0.1878,-0.1904,-0.1903,-0.196,-0.1976,-0.1978,-0.2015,-0.2035,-0.2018,-0.2059,-0.2062,-0.2067,-0.2055,-0.2039,-0.2042,-0.2045,-0.2004,-0.2004,-0.2003,0,0,-0.1674,-0.1717,-0.1746,-0.178,-0.1835,-0.1856,-0.1877,-0.1928,-0.1953,-0.2009,-0.2007,-0.2037,-0.2078,-0.2073,-0.2074,-0.2132,-0.2096,-0.2145,-0.2162,-0.215,-0.2152,-0.2154,-0.2135,-0.2134,-0.2146,-0.2146,-0.2146,0,-0.1684,-0.1723,-0.1763,-0.1798,-0.1828,-0.1873,-0.1906,-0.194,-0.2001,-0.202,-0.2035,-0.2087,-0.2096,-0.211,-0.2131,-0.2143,-0.2131,-0.2128,-0.2156,-0.2157,-0.2157,-0.2137,-0.2136,-0.2149,-0.2148,-0.2148,-0.2148,0,-0.1711,-0.1756,-0.1782,-0.1833,-0.1873,-0.1918,-0.1961,-0.2009,-0.2049,-0.2071,-0.212,-0.214,-0.2161,-0.2173,-0.2171,-0.2184,-0.2172,-0.2165,-0.2127,-0.2163,-0.214,-0.2138,-0.2152,-0.2151,-0.215,-0.215,0,0,-0.169,-0.1782,-0.1792,-0.1822,-0.1898,-0.1929,-0.1985,-0.2035,-0.2067,-0.2123,-0.2155,-0.2187,-0.22,-0.2202,-0.2205,-0.2199,-0.2201,-0.219,-0.2189,-0.2157,-0.2172,-0.2041,-0.2026,-0.22,-0.2199,-0.2199,-0.2155,0,-0.1698,-0.176,-0.1806,-0.1869,-0.1903,-0.1964,-0.2009,-0.2062,-0.2109,-0.2156,-0.2173,-0.221,-0.2208,-0.2228,-0.2222,-0.2212,-0.2197,-0.2214,-0.2154,-0.2152,-0.2019,-0.202,-0.2199,-0.2154,-0.2153,-0.2153,-0.2152,0,-0.1691,-0.1739,-0.1801,-0.1885,-0.1907,-0.1954,-0.2031,-0.2077,-0.2141,-0.2179,-0.2211,-0.2232,-0.2244,-0.224,-0.2214,-0.2228,-0.2201,-0.2185,-0.2182,-0.2039,-0.2016,-0.2111,-0.2148,-0.2148,-0.2148,-0.2149,-0.2149,0,-0.1633,-0.1728,-0.1778,-0.1809,-0.1912,-0.1955,-0.201,-0.2084,-0.2121,-0.2193,-0.2222,-0.2244,-0.2256,-0.2234,-0.2207,-0.2217,-0.2165,-0.2171,-0.2022,-0.2013,-0.2126,-0.2125,-0.2136,-0.2136,-0.2136,-0.2136,-0.2136,0,-0.1599,-0.1643,-0.1764,-0.179,-0.1851,-0.1935,-0.1999,-0.2057,-0.2133,-0.2157,-0.2227,-0.2228,-0.2256,-0.2233,-0.2207,-0.2094,-0.2159,-0.2009,-0.1984,-0.2148,-0.2149,-0.2125,-0.2124,-0.2134,-0.2135,-0.2135,-0.2135,0,-0.1518,-0.16,-0.1665,-0.1787,-0.1825,-0.1869,-0.1984,-0.2017,-0.2108,-0.214,-0.2163,-0.2216,-0.218,-0.2179,-0.214,-0.2067,-0.1996,-0.1939,-0.2107,-0.2097,-0.1856,-0.1859,-0.1765,-0.176,-0.1756,-0.1752,-0.1749,0,-0.1477,-0.1505,-0.1642,-0.1677,-0.1738,-0.1821,-0.1867,-0.1985,-0.2011,-0.2101,-0.2091,-0.2107,-0.2119,-0.194,-0.1974,-0.1896,-0.1872,-0.1829,-0.1842,-0.1828,-0.1815,-0.1824,-0.1833,-0.1742,-0.1741,-0.174,-0.1739,0,-0.1391,-0.1457,-0.1509,-0.1585,-0.165,-0.1705,-0.178,-0.1784,-0.1896,-0.2004,-0.1947,-0.1916,-0.187,-0.183,-0.1776,-0.1729,-0.1858,-0.1783,-0.1792,-0.1805,-0.1799,-0.1792,-0.1806,-0.1723,-0.1726,-0.1727,-0.1728,0,-0.1322,-0.1338,-0.1414,-0.1462,-0.1538,-0.1546,-0.1612,-0.163,-0.1669,-0.1778,-0.1752,-0.1774,-0.1837,-0.1741,-0.1697,-0.1634,-0.1614,-0.1562,-0.1582,-0.1599,-0.1566,-0.1536,-0.134,0,0,0,0,0,-0.1242,-0.1239,-0.1278,-0.1321,-0.1391,-0.1425,-0.1526,-0.1594,-0.1709,-0.1615,-0.1676,-0.1627,-0.156,-0.158,-0.1477,-0.163,-0.1626,-0.1507,-0.158,-0.1639,-0.1657,-0.1634,0,0,0,0,0,0,-0.1186,-0.1218,-0.1228,-0.1184,-0.1181,-0.1234,-0.1286,-0.1371,-0.1331,-0.1453,-0.1415,-0.1518,-0.147,-0.1572,-0.1434,-0.1441,-0.1452,-0.1541,-0.1536,-0.1629,-0.1645,-0.1659,-0.1642,0,0,0,0,0]},{"header":{"parameterUnit":"m.s-1","parameterCategory":2,"la1":30.2991,"la2":30.254,"lo1":-89.0895,"lo2":-89.0444,"dy":0.0017,"dx":0.0017,"nx":28,"ny":28,"refTime":"2025-04-19T21:00:00:Z","depth":"4","parameterNumber":3,"parameterNumberName":"V-component_of_CURRENTS"},"data":[0,0,0,0,0,0,0,0,0,0,0,0,0,0,0,0,0,0,0,0,0,0,0,0,0,0,0,0,0,0,0,0,0,0,0,0,0,0,0,0,0,0,0,0,0,0,0,0,0,0,0,0,0,0,0,0,0,0,-0.0266,-0.0265,0,-0.0194,-0.0193,-0.0192,-0.0147,-0.0147,-0.0147,-0.0147,-0.0047,-0.0044,-0.0042,0,0,0,0,0,0,0,0,0,0,0,0,0,-0.0306,-0.0305,-0.0266,-0.0265,-0.0265,-0.0194,-0.0193,-0.0192,-0.0147,-0.0147,-0.0147,-0.0147,-0.0047,-0.0044,-0.0041,0,0,0,0,0,0,0,0,0,0,0,0,0,-0.0265,-0.0305,-0.0266,-0.0235,-0.0231,-0.0194,-0.0193,-0.0191,-0.0147,-0.0147,-0.0147,-0.0146,-0.0048,-0.0045,-0.0041,-0.0021,0,0,-0.0029,-0.0027,0,0,0,0,0,0,0,0,-0.0268,-0.0264,-0.024,-0.0237,-0.0233,-0.018,-0.017,-0.0133,-0.0147,-0.0177,-0.0147,-0.0146,-0.009,-0.0083,-0.0068,-0.0016,-0.0012,-0.0029,-0.0026,-0.0025,-0.0024,0,0,0,0,0,0,0,-0.0271,-0.0266,-0.0236,-0.0239,-0.0235,-0.0204,-0.0198,-0.0163,-0.0134,-0.0175,-0.0172,-0.0166,-0.0087,-0.0072,-0.0065,-0.001,-0.0029,-0.0026,-0.0023,-0.0022,0.0077,0.0077,0,0,0,0,0,0,-0.0286,-0.0269,-0.0238,-0.0234,-0.0252,-0.0204,-0.0197,-0.0196,-0.0135,-0.0126,-0.0166,-0.0164,-0.0078,-0.0069,-0.0061,-0.0031,-0.0025,-0.0021,-0.0019,0.0077,0.0077,0.0077,0,0,0,0,0,0,-0.0287,-0.0284,-0.0241,-0.0251,-0.0243,-0.0204,-0.0202,-0.0195,-0.0183,-0.0129,-0.0119,-0.0163,-0.0078,-0.0067,-0.0028,-0.0027,-0.002,-0.0016,0.0076,0.0077,0.0077,0.0028,0,0,0,0,0,0,-0.0289,-0.0285,-0.0292,-0.0252,-0.0243,-0.0226,-0.0203,-0.0194,-0.018,-0.0177,-0.0122,-0.0113,-0.0077,-0.0034,-0.0025,-0.0022,-0.0013,0.0076,0.0076,0.0077,0.0029,0.0027,0.0025,0,0,0,0,0,-0.029,-0.03,-0.0293,-0.0289,-0.0254,-0.0226,-0.0219,-0.0189,-0.018,-0.0177,-0.0136,-0.0115,-0.0024,-0.0031,-0.002,-0.0015,0.0075,0.0076,0.0077,0.003,0.0027,0.0025,0,0,0,0,0,0,-0.0319,-0.0296,-0.0287,-0.0289,-0.0264,-0.022,-0.0217,-0.0196,-0.0162,-0.016,-0.0109,-0.0096,-0.0064,-0.0032,-0.0041,0.0016,0.0029,0.0032,-0.001,-0.0013,-0.0015,-0.0028,-0.001,0,0,0,0,0,-0.0331,-0.0335,-0.0302,-0.0305,-0.0296,-0.0259,-0.0246,-0.0226,-0.019,-0.0175,-0.0135,-0.0091,-0.0051,-0.0027,0.001,0.0042,0.0074,0.0053,0.0051,0.0048,0.0046,0.0096,0.0097,0.008,0.008,0.008,0,0,-0.0343,-0.0331,-0.0334,-0.0312,-0.0291,-0.028,-0.025,-0.0237,-0.0222,-0.0169,-0.014,-0.0101,-0.0046,-0.001,0.0008,0.0018,0.007,0.0049,0.0047,0.0046,0.0096,0.0098,0.01,0.008,0.008,0.008,0,0,-0.0368,-0.036,-0.0371,-0.0353,-0.033,-0.0304,-0.0304,-0.0264,-0.0242,-0.021,-0.0168,-0.0126,-0.0069,-0.0023,0.0006,0.0014,0.0051,0.0023,0.0007,0.0055,0.0056,0.0058,0.0095,0.0101,0.0027,0.0027,0.0027,0,-0.0386,-0.0392,-0.0368,-0.0369,-0.0359,-0.0319,-0.032,-0.029,-0.0241,-0.0221,-0.021,-0.0117,-0.0073,-0.0018,-0.0014,0.0009,0.0036,0.001,0.0051,0.0053,0.0056,0.0093,0.01,0.0025,0.0025,0.0025,0.0026,0,-0.0411,-0.0417,-0.0421,-0.041,-0.0394,-0.039,-0.0348,-0.0329,-0.0301,-0.0264,-0.0212,-0.0148,-0.0091,-0.007,-0.0039,0.0005,0.0018,0.0036,0.0053,0.0054,0.0094,0.0102,0.0022,0.0022,0.0023,0.0024,0,0,-0.045,-0.0443,-0.0446,-0.045,-0.0417,-0.0409,-0.0385,-0.0348,-0.0335,-0.0279,-0.0248,-0.0173,-0.0138,-0.0103,-0.0053,-0.0008,0.0035,0.0017,0.002,0.0045,0.0132,0.0113,0.012,0.0057,0.0058,0.0059,0.0149,0,-0.0478,-0.0499,-0.0479,-0.0491,-0.0496,-0.0454,-0.0436,-0.0396,-0.0353,-0.0313,-0.0236,-0.0192,-0.0149,-0.0126,-0.0072,0.0009,0.0054,0.0008,0.0134,0.0138,0.0115,0.0128,0.0063,0.0155,0.0157,0.0159,0.0159,0,-0.0506,-0.0518,-0.0541,-0.0536,-0.0534,-0.0534,-0.0503,-0.048,-0.0407,-0.0372,-0.0307,-0.0247,-0.0163,-0.0137,0.0005,-0.0029,0.0043,0.0104,0.011,0.0115,0.0134,0.0158,0.0174,0.0173,0.0172,0.0171,0.017,0,-0.0546,-0.0558,-0.0583,-0.0581,-0.0567,-0.0571,-0.056,-0.0504,-0.0485,-0.0412,-0.0388,-0.0278,-0.0226,-0.0118,0.0013,0.0008,0.0162,0.0174,0.0228,0.0227,0.0238,0.0235,0.0266,0.0266,0.0266,0.0266,0.0265,0,-0.0576,-0.0597,-0.0612,-0.0626,-0.0657,-0.0625,-0.0636,-0.0603,-0.0553,-0.0528,-0.0428,-0.0381,-0.0221,-0.011,0.0004,0.0141,0.0161,0.0226,0.0251,0.0215,0.0208,0.0243,0.0239,0.0269,0.0268,0.0268,0.0267,0,-0.0608,-0.0617,-0.0653,-0.0669,-0.068,-0.0702,-0.0702,-0.07,-0.0646,-0.061,-0.059,-0.0452,-0.0305,-0.0144,0.004,0.0121,0.0256,0.0299,0.0243,0.0264,0.0291,0.0283,0.0363,0.0363,0.0363,0.0363,0.0363,0,-0.0623,-0.0647,-0.07,-0.0734,-0.0749,-0.0778,-0.0794,-0.0756,-0.0743,-0.0649,-0.063,-0.0488,-0.0381,-0.0126,0.0034,0.0249,0.0275,0.0335,0.0316,0.0285,0.0302,0.0294,0.0287,0.0363,0.0363,0.0363,0.0363,0,-0.0652,-0.0679,-0.0712,-0.0788,-0.083,-0.0863,-0.0878,-0.0875,-0.0814,-0.0771,-0.0647,-0.0501,-0.0334,-0.0132,0.0036,0.0189,0.0291,0.0337,0.0338,0.032,0.0287,0.0302,0.0294,0.0364,0.0364,0.0364,0.0364,0,-0.0674,-0.0711,-0.0767,-0.0826,-0.0889,-0.0923,-0.0927,-0.0891,-0.0863,-0.0748,-0.071,-0.0511,-0.039,-0.0163,-0.0007,0.0141,0.0172,0.0205,0.0213,0.0214,0.0141,0.0075,0.0111,0,0,0,0,0,-0.0686,-0.073,-0.0796,-0.0861,-0.0926,-0.0953,-0.0967,-0.0952,-0.0899,-0.0818,-0.0756,-0.0592,-0.0338,-0.022,-0.0075,-0.0025,0.0178,0.0145,0.0215,0.0366,0.0366,0.0303,0,0,0,0,0,0,-0.0695,-0.0762,-0.0795,-0.0875,-0.0923,-0.0979,-0.0989,-0.0954,-0.0891,-0.0818,-0.0675,-0.0579,-0.0329,-0.042,-0.0078,-0.0032,0.0026,0.0274,0.0277,0.0366,0.0366,0.0366,0.0301,0,0,0,0,0]}]]